Flag for Nepal Weather past 2 weeks in Kathmandu, Nepal

Now
54 °F

Passing clouds.


Feels Like: 53 °F
Forecast: 52 / 78 °F
Wind: 3 mph from East

Location: Kathmandu Airport

Current Time: Feb 27, 2015 at 10:49:49 PM

Latest Report: Feb 27, 2015 at 9:35 PM


Visibility: 4 mi

Pressure: 30.09 "Hg

Humidity: 72%

Dew point: 45 °F

Location of KathmanduLocation

Historic Weather in Kathmandu — Graph

°F

Kathmandu temperature yesterday

Maximum temperature yesterday: 59 °F (at 8:35 AM)
Minimum temperature yesterday: 50 °F (at 8:35 PM)
Average temperature yesterday: 54 °F

Past Weeks' High & Low Weather Summary

 TemperatureHumidityPressure
High72 °F (Feb 22, 1:35 PM)100% (Feb 20, 3:35 AM)30.21 "Hg (Feb 20, 3:35 AM)
Low43 °F (Feb 14, 6:35 AM)31% (Feb 27, 2:35 PM)29.92 "Hg (Feb 13, 2:35 PM)
Average57 °F76%30.06 "Hg
* Reported Feb 12 9:35 PM — Feb 27 9:35 PM, Kathmandu, Weather by CustomWeather, © 2015

Note: Actual official high and low records may vary slightly from our data, if they occured in-between our weather recording intervals... More about our weather records

Advertising

Kathmandu weather history for previous 24 hours

 ConditionsComfort  
Time TempWeatherWind HumidityBarometerVisibility
9:35 PM
Fri, Feb 27
54 °FPassing clouds.3 mph72%30.09 "Hg4 mi
8:35 PM57 °FPassing clouds.3 mph67%30.07 "Hg4 mi
7:35 PM61 °FPassing clouds.3 mph59%30.04 "Hg4 mi
6:35 PM64 °FPassing clouds.5 mph49%30.01 "HgN/A
5:35 PM68 °FPassing clouds.6 mph40%29.98 "HgN/A
4:35 PM70 °FScattered clouds.10 mph38%29.98 "HgN/A
3:35 PM72 °FScattered clouds.9 mph36%29.98 "HgN/A
2:35 PM72 °FScattered clouds.13 mph31%30.01 "HgN/A
1:35 PM72 °FPassing clouds.17 mph33%30.04 "HgN/A
12:35 PM72 °FPassing clouds.No wind38%30.07 "Hg5 mi
11:35 AM66 °FHaze.No wind56%30.09 "Hg4 mi
10:35 AM61 °FHaze.No wind68%30.09 "Hg3 mi
9:35 AM55 °FFog.No wind82%30.09 "Hg2 mi
8:35 AM52 °FFog.No wind94%30.09 "Hg1 mi
6:35 AM48 °FFog.3 mph100%30.07 "Hg1 mi
5:35 AM50 °FFog.3 mph94%30.04 "Hg2 mi
4:35 AM50 °FFog.3 mph94%30.01 "Hg3 mi
3:35 AM50 °FFog.No wind94%30.01 "Hg3 mi
2:35 AM50 °FLight rain. Mostly cloudy.No wind94%30.07 "Hg2 mi
1:35 AM50 °FLight rain. Mostly cloudy.5 mph94%30.07 "Hg2 mi
12:35 AM50 °FRain. Mostly cloudy.No wind94%30.09 "Hg2 mi
11:35 PM
Thu, Feb 26
50 °FPartly cloudy.No wind94%30.07 "Hg4 mi
10:35 PM50 °FPartly cloudy.No wind94%30.07 "Hg4 mi
Weather by CustomWeather, © 2015

See weather overviewHow to use our weather pages